(309931) = 2009 FP61

Discovered at Kitt Peak on 2009-03-29 by Spacewatch.

Orbit

Orbit type: Main Belt

Note: WebGL enabled browser required.

epoch2023-09-13.0
epoch JD2460200.5
perihelion date2020-03-20.29525
perihelion JD2458928.79525
argument of perihelion (°)7.14216
ascending node (°)40.28129
inclination (°)15.60305
eccentricity0.0738010
perihelion distance (AU)2.4333185
Tisserand w.r.t. Jupiter3.3
ΔV w.r.t. Earth (km/sec)10.9
semimajor axis (AU)2.6272091
mean anomaly (°)294.33924
mean daily motion (°/day)0.23145250
aphelion distance (AU)2.821
period (years)4.26
P-vector [x]0.67953692
P-vector [y]0.65910077
P-vector [z]0.32220451
Q-vector [x]-0.71273283
Q-vector [y]0.48899118
Q-vector [z]0.50289118
absolute magnitude16.42
phase slope0.15
uncertainty0
referenceMPO 779217
observations used360
oppositions12
arc length (days)9125
first opposition used1998
last opposition used2023
residual rms (arc-secs)0.80
perturbers coarse indicatorM-v
perturbers precise indicator003Ek
first observation date used1998-10-17.0
last observation date used2023-10-11.0
computer nameMPCLINUX
JD of orbit computation2456819.634433
perihelion JD uncertainty (days)1.3868E-04
argument of perihelion uncertainty (°)3.2903E-05
ascending node uncertainty (°)1.4454E-05
inclination uncertainty (°)6.6093E-06
eccentricity uncertainty 6.1498E-08
perihelion distance uncertainty (AU)1.5878E-07
Minimum Orbit Intersection Distances (in AU)
for orbit epoch: 2460200.5, reference: E2023-TI3
Mercury2.11283
Venus1.71167
Earth1.44192
Mars0.9538
Jupiter2.51203
Saturn6.65923
Uranus15.7567
Neptune27.3946

Observations

370 total observations over interval: 1998 10 17.44133 – 2023 10 11.397038
These data are available for download (format description).

Date (UT) J2000 RA J2000 Dec Magn Location Ref
1998 10 17.44133 02 52 53.18 +14 42 28.4 19.7 V 691 – Steward Observatory, Kitt Peak-Spacewatch MPS 367154
1998 10 17.46702 02 52 51.66 +14 42 32.5 19.6 V 691 – Steward Observatory, Kitt Peak-Spacewatch MPS 367154
1998 10 17.48885 02 52 50.38 +14 42 36.6 19.7 V 691 – Steward Observatory, Kitt Peak-Spacewatch MPS 367154
2002 09 19.45068 01 03 18.50 -09 43 19.8 20.0 R 644 – Palomar Mountain/NEAT MPS 306744
2002 09 19.46113 01 03 17.92 -09 43 20.4 19.5 R 644 – Palomar Mountain/NEAT MPS 306744
2002 09 19.47166 01 03 17.29 -09 43 22.6 19.8 R 644 – Palomar Mountain/NEAT MPS 306744
2002 09 28.46506 00 54 30.32 -09 55 17.9 19.4 R 608 – Haleakala-AMOS MPS 306744
2002 09 28.47580 00 54 29.62 -09 55 18.4 19.1 R 608 – Haleakala-AMOS MPS 306744
2002 10 05.24308 00 47 23.51 -09 57 09.9   704 – Lincoln Laboratory ETS, New Mexico MPS 407660
2002 10 05.27266 00 47 21.62 -09 57 09.0   704 – Lincoln Laboratory ETS, New Mexico MPS 407660
2002 10 05.28762 00 47 20.59 -09 57 10.2   704 – Lincoln Laboratory ETS, New Mexico MPS 407660
2002 10 05.30236 00 47 19.65 -09 57 09.1   704 – Lincoln Laboratory ETS, New Mexico MPS 407660
2002 10 25.09904 00 27 59.15 -09 14 19.6 20.7 R 644 – Palomar Mountain/NEAT MPS 306744
2002 10 25.12005 00 27 58.01 -09 14 15.0 20.5 R 644 – Palomar Mountain/NEAT MPS 306744
2002 10 25.14101 00 27 56.97 -09 14 09.9 19.9 R 644 – Palomar Mountain/NEAT MPS 306744
2009 03 18.36085 14 19 03.49 -06 18 53.1   691 – Steward Observatory, Kitt Peak-Spacewatch MPS 287029
2009 03 18.37845 14 19 02.88 -06 18 53.2   691 – Steward Observatory, Kitt Peak-Spacewatch MPS 287029
2009 03 18.39367 14 19 02.35 -06 18 53.3   691 – Steward Observatory, Kitt Peak-Spacewatch MPS 287029
2009 03 29.29828 14 11 37.65 -06 15 11.0   691 – Steward Observatory, Kitt Peak-Spacewatch MPS 287029
2009 03 29.31597 14 11 36.78 -06 15 10.6   691 – Steward Observatory, Kitt Peak-Spacewatch MPS 287029
2009 03 29.33366 14 11 35.88 -06 15 09.7   691 – Steward Observatory, Kitt Peak-Spacewatch MPS 287029
2009 04 02.30123 14 08 16.82 -06 12 48.4 20.4 V 691 – Steward Observatory, Kitt Peak-Spacewatch MPS 287029
2009 04 02.31893 14 08 15.87 -06 12 47.6 20.4 V 691 – Steward Observatory, Kitt Peak-Spacewatch MPS 287029
2009 04 02.33664 14 08 14.87 -06 12 47.0 20.3 V 691 – Steward Observatory, Kitt Peak-Spacewatch MPS 287029
2009 04 18.35828 13 52 46.02 -06 02 49.8 19.9 V G96 – Mt. Lemmon Survey MPS 287029
2009 04 18.36509 13 52 45.58 -06 02 49.8 19.9 V G96 – Mt. Lemmon Survey MPS 287029
2009 04 18.37197 13 52 45.15 -06 02 49.4 19.9 V G96 – Mt. Lemmon Survey MPS 287029
2009 04 18.37872 13 52 44.72 -06 02 49.3 19.9 V G96 – Mt. Lemmon Survey MPS 287029
2009 04 26.41699 13 44 35.22 -06 00 31.2   291 – LPL/Spacewatch II MPS 287029
2009 04 26.42076 13 44 34.99 -06 00 31.1   291 – LPL/Spacewatch II MPS 287029
2009 04 26.42437 13 44 34.77 -06 00 31.3   291 – LPL/Spacewatch II MPS 287029
2009 05 16.23877 13 27 21.24 -06 15 02.0 20.5 V G96 – Mt. Lemmon Survey MPS 287029
2009 05 16.24718 13 27 20.84 -06 15 02.5 20.7 V G96 – Mt. Lemmon Survey MPS 287029
2009 05 16.25560 13 27 20.48 -06 15 03.8 20.7 V G96 – Mt. Lemmon Survey MPS 287029
2009 05 16.26398 13 27 20.16 -06 15 04.3 20.6 V G96 – Mt. Lemmon Survey MPS 287029
2011 10 25.42836 04 53 23.800 +30 16 17.11 22.3 w F51 – Pan-STARRS 1, Haleakala MPS 396426
2011 10 25.44287 04 53 23.404 +30 16 23.52 20.4 w F51 – Pan-STARRS 1, Haleakala MPS 396426
2011 10 25.45733 04 53 23.021 +30 16 30.49 20.5 w F51 – Pan-STARRS 1, Haleakala MPS 396426
2011 11 27.39675 04 23 07.58 +33 52 50.3 18.7 V 703 – Catalina Sky Survey MPS 402460
2011 11 27.40187 04 23 07.15 +33 52 51.4 19.1 V 703 – Catalina Sky Survey MPS 402460
2011 11 27.40713 04 23 06.64 +33 52 52.9 19.1 V 703 – Catalina Sky Survey MPS 402460
2011 11 27.41230 04 23 06.32 +33 52 53.2 19.3 V 703 – Catalina Sky Survey MPS 402460
2011 11 27.61744 04 22 51.24 +33 53 45.8 19.4 R D29 – Purple Mountain Observatory, XuYi Station MPS 402460
2011 11 27.63341 04 22 49.89 +33 53 49.9 19.6 R D29 – Purple Mountain Observatory, XuYi Station MPS 402460
2011 11 27.64940 04 22 48.71 +33 53 53.5 18.6 R D29 – Purple Mountain Observatory, XuYi Station MPS 402460
2011 11 28.25175 04 22 03.00 +33 56 18.9 18.8 V G96 – Mt. Lemmon Survey MPS 402460
2011 11 28.26339 04 22 02.10 +33 56 21.8 18.9 V G96 – Mt. Lemmon Survey MPS 402460
2011 11 28.27509 04 22 01.20 +33 56 24.7 18.8 V G96 – Mt. Lemmon Survey MPS 402460
2011 11 28.28664 04 22 00.26 +33 56 27.4 18.8 V G96 – Mt. Lemmon Survey MPS 402460
2011 11 28.79521 04 21 21.82 +33 58 24.9 18.8 R 461 – University of Szeged, Piszkesteto Stn. (Konkol MPS 402460
2011 11 28.79718 04 21 21.67 +33 58 25.4 18.9 R 461 – University of Szeged, Piszkesteto Stn. (Konkol MPS 402460
2011 11 28.80113 04 21 21.37 +33 58 26.4 18.9 R 461 – University of Szeged, Piszkesteto Stn. (Konkol MPS 402460
2011 11 28.81657 04 21 20.17 +33 58 30.1 18.9 R 461 – University of Szeged, Piszkesteto Stn. (Konkol MPS 402460
2011 11 28.82052 04 21 19.86 +33 58 31.0 18.8 R 461 – University of Szeged, Piszkesteto Stn. (Konkol MPS 402460
2011 11 28.82447 04 21 19.55 +33 58 32.0 19.0 R 461 – University of Szeged, Piszkesteto Stn. (Konkol MPS 402460
2011 11 28.83995 04 21 18.35 +33 58 35.8 18.8 R 461 – University of Szeged, Piszkesteto Stn. (Konkol MPS 402460
2011 11 28.84390 04 21 18.05 +33 58 36.6 19.0 R 461 – University of Szeged, Piszkesteto Stn. (Konkol MPS 402460
2011 11 28.84785 04 21 17.75 +33 58 37.7 19.0 R 461 – University of Szeged, Piszkesteto Stn. (Konkol MPS 402460
2011 11 28.87514 04 21 15.61 +33 58 44.1 19.1 R 461 – University of Szeged, Piszkesteto Stn. (Konkol MPS 402460
2011 11 28.87711 04 21 15.46 +33 58 44.8 18.8 R 461 – University of Szeged, Piszkesteto Stn. (Konkol MPS 402460
2011 11 28.88105 04 21 15.16 +33 58 45.6 18.9 R 461 – University of Szeged, Piszkesteto Stn. (Konkol MPS 402460
2011 11 28.90058 04 21 13.63 +33 58 50.2 18.9 R 461 – University of Szeged, Piszkesteto Stn. (Konkol MPS 402460
2011 11 28.92407 04 21 11.80 +33 58 55.7 19.0 R 461 – University of Szeged, Piszkesteto Stn. (Konkol MPS 402460
2011 11 29.78691 04 20 06.33 +34 02 09.7 19.0 R 461 – University of Szeged, Piszkesteto Stn. (Konkol MPS 402460
2011 11 29.81040 04 20 04.52 +34 02 15.1 18.8 R 461 – University of Szeged, Piszkesteto Stn. (Konkol MPS 402460
2011 11 29.83390 04 20 02.69 +34 02 20.5 19.0 R 461 – University of Szeged, Piszkesteto Stn. (Konkol MPS 402460
2011 11 29.98108 04 19 51.20 +34 02 53.2 19.0 R 461 – University of Szeged, Piszkesteto Stn. (Konkol MPS 402460
2011 11 30.00461 04 19 49.36 +34 02 58.2 19.0 R 461 – University of Szeged, Piszkesteto Stn. (Konkol MPS 402460
2011 11 30.09564 04 19 42.30 +34 03 16.9 19.0 R 461 – University of Szeged, Piszkesteto Stn. (Konkol MPS 402460
2013 02 06.38288 13 07 12.19 +09 17 57.0 20.5 R 448 – Desert Moon Observatory, Las Cruces MPS 456247
2013 02 06.42737 13 07 12.04 +09 18 02.5 20.7 R 448 – Desert Moon Observatory, Las Cruces MPS 456247
2013 02 06.47325 13 07 11.77 +09 18 08.4 20.9 R 448 – Desert Moon Observatory, Las Cruces MPS 456247
2013 03 05.39373 12 56 22.12 +10 42 33.1 20.2 V G96 – Mt. Lemmon Survey MPS 459184
2013 03 05.40110 12 56 21.84 +10 42 34.3 20.2 V G96 – Mt. Lemmon Survey MPS 459184
2013 03 05.40690 12 56 21.58 +10 42 35.8 20.3 V G96 – Mt. Lemmon Survey MPS 459184
2013 03 05.41723 12 56 21.08 +10 42 37.9 20.2 V G96 – Mt. Lemmon Survey MPS 459184
2013 03 05.57397 12 56 14.015 +10 43 12.41 20.6 r F51 – Pan-STARRS 1, Haleakala MPS 459184
2013 03 05.58438 12 56 13.537 +10 43 14.67 20.5 r F51 – Pan-STARRS 1, Haleakala MPS 459184
2013 03 05.59586 12 56 13.009 +10 43 17.03 20.4 i F51 – Pan-STARRS 1, Haleakala MPS 459184
2013 03 05.60722 12 56 12.482 +10 43 19.53 20.4 i F51 – Pan-STARRS 1, Haleakala MPS 459184
2013 03 13.23224 12 49 57.80 +11 09 31.9 20.3 G G45 – Space Surveillance Telescope, Atom Site MPS 1609375
2013 03 13.36454 12 49 50.46 +11 09 58.4 19.1 G G45 – Space Surveillance Telescope, Atom Site MPS 1609375
2013 03 13.38974 12 49 49.12 +11 10 02.6 20.4 G G45 – Space Surveillance Telescope, Atom Site MPS 1609375
2013 03 13.50854 12 49 42.63 +11 10 24.9 20.3 G G45 – Space Surveillance Telescope, Atom Site MPS 1609375
